Location: LDNL
(36.4545°S, 141.6685°E)
Time: 12:26:11
(UTC+10:00)

Tiros 1 despin weight - Pass Details

Date: 14 August 2022
Orbit: 590 x 639 km, 48.2° (Epoch: 23 September)

Event Time Altitude Azimuth Distance (km) Brightness Sun altitude
Rises 01:40:02 0° 261° (W) 2,919 - -64.1°
Reaches altitude 10° 01:42:46 10° 246° (WSW) 2,024 - -63.8°
Maximum altitude 01:46:29 23° 193° (SSW) 1,369 - -63.3°
Drops below altitude 10° 01:50:15 10° 140° (SE) 2,047 - -62.8°
Sets 01:53:02 0° 125° (SE) 2,962 - -62.4°
